Home   Weather   Randers   Past weeks

Flag for Denmark Past Weather in Randers, Denmark — Yesterday and Last 2 Weeks

Now
52 °F

Passing clouds.


Feels Like: 49 °F
Forecast: 48 / 64 °F
Wind: 7 mph from Southwest

Location: Tirstrup

Current Time: Oct 1, 2016 at 12:04:16 AM

Latest Report: Sep 30, 2016 at 11:20 PM


Visibility: N/A

Pressure: 29.77 "Hg

Humidity: 77%

Dew Point: 45 °F

Location of RandersLocation

Past Weather in Randers — Graph

°F

Randers Temperature Yesterday

Maximum temperature yesterday: 61 °F (at 12:20 PM)
Minimum temperature yesterday: 52 °F (at 3:50 AM)
Average temperature yesterday: 55 °F

High & Low Weather Summary for the Past Weeks

 TemperatureHumidityPressure
High72 °F (Sep 16, 1:50 PM)94% (Sep 27, 8:50 AM)30.30 "Hg (Sep 27, 8:50 AM)
Low43 °F (Sep 18, 6:20 AM)34% (Sep 19, 11:50 AM)29.53 "Hg (Sep 29, 3:20 PM)
Average59 °F68%30.07 "Hg
* Reported Sep 15 10:20 PM — Sep 30 10:50 PM, Randers, Weather by CustomWeather, © 2016

Note: Actual official high and low records may vary slightly from our data, if they occured in-between our weather recording intervals... More about our weather records

Advertising

Randers Weather History for the Previous 24 Hours

Scroll right to see more
 ConditionsComfort  
Time TempWeatherWind HumidityBarometerVisibility
10:50 PM
Fri, Sep 30
52 °FPassing clouds.5 mph77%29.77 "HgN/A
10:20 PM54 °FPassing clouds.8 mph67%29.77 "HgN/A
9:50 PM54 °FPartly cloudy.10 mph63%29.77 "HgN/A
9:20 PM54 °FPassing clouds.9 mph67%29.77 "HgN/A
8:50 PM54 °FPassing clouds.8 mph72%29.77 "HgN/A
8:20 PM54 °FPassing clouds.8 mph72%29.77 "HgN/A
7:50 PM55 °FCool.10 mph63%29.74 "HgN/A
7:20 PM55 °FPassing clouds.8 mph67%29.74 "HgN/A
6:50 PM55 °FCool.10 mph67%29.74 "HgN/A
6:20 PM55 °FPassing clouds.10 mph67%29.74 "HgN/A
5:50 PM57 °FScattered clouds.14 mph63%29.74 "HgN/A
5:20 PM59 °FPartly sunny.14 mph63%29.71 "HgN/A
4:50 PM59 °FScattered clouds.13 mph59%29.71 "HgN/A
4:20 PM57 °FPassing clouds.10 mph67%29.71 "HgN/A
3:50 PM57 °FRain showers. Passing clouds.10 mph67%29.71 "HgN/A
3:20 PM55 °FSprinkles. Partly sunny.9 mph72%29.71 "HgN/A
2:50 PM61 °FPassing clouds.14 mph52%29.71 "HgN/A
2:20 PM61 °FPassing clouds.16 mph52%29.71 "HgN/A
1:50 PM59 °FPassing clouds.15 mph55%29.71 "HgN/A
1:20 PM59 °FPassing clouds.16 mph59%29.71 "HgN/A
12:50 PM59 °FSprinkles. Partly sunny.15 mph68%29.71 "HgN/A
12:20 PM61 °FScattered clouds.10 mph55%29.71 "HgN/A
11:50 AM59 °FPartly sunny.10 mph63%29.71 "HgN/A
11:20 AM57 °FSprinkles. Scattered clouds.8 mph67%29.71 "HgN/A
10:50 AM57 °FCool.8 mph67%29.71 "HgN/A
10:20 AM57 °FCool.10 mph67%29.71 "HgN/A
9:50 AM55 °FScattered clouds.10 mph67%29.68 "HgN/A
9:20 AM55 °FPassing clouds.9 mph67%29.68 "HgN/A
8:50 AM54 °FPassing clouds.9 mph72%29.68 "HgN/A
8:20 AM54 °FPassing clouds.8 mph72%29.68 "HgN/A
7:50 AM54 °FPassing clouds.8 mph72%29.68 "HgN/A
7:20 AM52 °FCool.7 mph72%29.65 "HgN/A
6:50 AM52 °FCool.10 mph72%29.65 "HgN/A
6:20 AM52 °FPassing clouds.10 mph77%29.65 "HgN/A
5:50 AM52 °FCool.12 mph77%29.65 "HgN/A
5:20 AM52 °FPassing clouds.10 mph72%29.65 "HgN/A
4:50 AM52 °FCool.13 mph72%29.62 "HgN/A
4:20 AM52 °FPassing clouds.12 mph72%29.62 "HgN/A
3:50 AM52 °FCool.13 mph72%29.62 "HgN/A
3:20 AM54 °FPassing clouds.15 mph72%29.59 "HgN/A
2:50 AM54 °FPassing clouds.17 mph77%29.59 "HgN/A
2:20 AM55 °FPassing clouds.17 mph72%29.59 "HgN/A
1:50 AM55 °FPassing clouds.16 mph67%29.56 "HgN/A
1:20 AM55 °FCool.12 mph67%29.56 "HgN/A
12:50 AM55 °FSprinkles. Passing clouds.16 mph67%29.56 "HgN/A
12:20 AM55 °FCool.14 mph67%29.56 "HgN/A
Weather by CustomWeather, © 2016

See weather overviewHow to use our weather pages